Location: Bacharowice
(49.9333°N, 19.5833°E)
Time: 23:00:56
(UTC+00:00)

SOZ - Pass Details

Date: 01 October 2021
Orbit: 306 x 16687 km, 52.0° (Epoch: 18 October)

Event Time Altitude Azimuth Distance (km) Brightness Sun altitude
Rises 23:02:14 0° 193° (SSW) 22,121 13.0 -42.8°
Enters shadow 23:31:43 - 193° (SSW) 20,105 12.7 -41.5°
Exits shadow 00:23:53 31° 190° (S) 12,696 11.6 -37.6°
Maximum altitude 00:56:00 55° 139° (SE) 5,368 10.0 -34.2°
Drops below altitude 10° 01:09:51 10° 67° (ENE) 4,502 10.7 -32.5°
Sets 01:11:56 0° 62° (ENE) 4,910 11.2 -32.3°
